RYR8YN EDNY-LEAL

Flight info

Callsign RYR8YN
Flight time N/A
Altitude 37000
Route TRA1E TRA DCT LUTIX DCT BENOT DCT NEMOS DCT GEVEA/N0434F330 DCT INCUS DCT BALSI/N0443F370 DCT RETNO DCT TUPOX DCT MTG DCT DIVKO DCT VATIR N852 PIVUS Z237 OKITI M603 GERVU
Aircraft B38M/M-SDE1FGHILORVWXY/HB1

Departure

Time N/A
Airport Bodensee Airport Friedrichshafen (EDNY)

Arrival

Time 2026-04-28 16:07
Airport Alicante-Elche Miguel Hernández Airport (LEAL)
Time Latitude Longitude Altitude Speed Heading
2026-04-28 14:37 45.14666 5.85671 37010 ft 430 kts 197°
2026-04-28 14:38 45.14402 5.85589 37010 ft 429 kts 197°
2026-04-28 14:38 45.10329 5.84335 37018 ft 429 kts 197°
2026-04-28 14:39 45.03538 5.82246 37015 ft 429 kts 197°
2026-04-28 14:39 44.97686 5.80451 37013 ft 430 kts 197°
2026-04-28 14:40 44.91865 5.78669 37014 ft 429 kts 197°
2026-04-28 14:40 44.87001 5.77183 37022 ft 430 kts 197°
2026-04-28 14:41 44.81148 5.75398 37016 ft 429 kts 197°
2026-04-28 14:41 44.75305 5.73620 37015 ft 429 kts 197°
2026-04-28 14:42 44.69456 5.71843 37027 ft 429 kts 197°
2026-04-28 14:42 44.63654 5.70084 37016 ft 428 kts 197°
2026-04-28 14:43 44.57846 5.68328 37016 ft 428 kts 197°
2026-04-28 14:43 44.52016 5.66568 37010 ft 428 kts 197°
2026-04-28 14:44 44.46187 5.64812 37019 ft 428 kts 197°
2026-04-28 14:44 44.40387 5.63067 37007 ft 427 kts 197°
2026-04-28 14:45 44.34781 5.60557 37014 ft 421 kts 206°
2026-04-28 14:45 44.29340 5.57597 37007 ft 421 kts 205°
2026-04-28 14:46 44.23869 5.54605 37022 ft 422 kts 205°
2026-04-28 14:46 44.18428 5.51634 37012 ft 422 kts 205°
2026-04-28 14:47 44.12939 5.48643 37016 ft 422 kts 205°
2026-04-28 14:47 44.07504 5.45687 37013 ft 422 kts 205°
2026-04-28 14:48 44.02039 5.42720 37008 ft 422 kts 205°
2026-04-28 14:48 43.96551 5.39745 37015 ft 422 kts 205°
2026-04-28 14:49 43.91069 5.36778 37003 ft 423 kts 205°
2026-04-28 14:49 43.85605 5.33825 37004 ft 423 kts 205°
2026-04-28 14:50 43.80120 5.30868 37005 ft 423 kts 205°
2026-04-28 14:50 43.74621 5.27908 37017 ft 423 kts 205°
2026-04-28 14:51 43.69166 5.24979 37019 ft 423 kts 205°
2026-04-28 14:51 43.63667 5.22032 37014 ft 423 kts 205°
2026-04-28 14:52 43.58206 5.19110 37017 ft 423 kts 205°
2026-04-28 14:52 43.52734 5.16187 37020 ft 423 kts 205°
2026-04-28 14:53 43.47229 5.13254 37019 ft 423 kts 205°
2026-04-28 14:53 43.41738 5.10333 37019 ft 422 kts 205°
2026-04-28 14:54 43.36600 5.06679 37031 ft 415 kts 217°
2026-04-28 14:54 43.31793 5.02213 37016 ft 417 kts 217°
2026-04-28 14:55 43.27017 4.97733 37013 ft 417 kts 217°
2026-04-28 14:55 43.22214 4.93221 37012 ft 417 kts 217°
2026-04-28 14:56 43.17449 4.88752 37012 ft 417 kts 217°
2026-04-28 14:56 43.12641 4.84252 37011 ft 417 kts 217°
2026-04-28 14:57 43.07841 4.79766 37013 ft 417 kts 217°
2026-04-28 14:57 43.02859 4.75738 37015 ft 419 kts 211°
2026-04-28 14:58 42.97729 4.71890 37011 ft 419 kts 212°
2026-04-28 14:58 42.92646 4.68034 37012 ft 419 kts 212°
2026-04-28 14:59 42.87571 4.64184 37008 ft 419 kts 212°
2026-04-28 14:59 42.82459 4.60314 37008 ft 419 kts 211°
2026-04-28 15:00 42.77343 4.56447 37005 ft 419 kts 211°
2026-04-28 15:00 42.72264 4.52616 37001 ft 419 kts 211°
2026-04-28 15:01 42.67148 4.48764 37004 ft 419 kts 211°
2026-04-28 15:01 42.62069 4.44947 37008 ft 420 kts 211°
2026-04-28 15:02 42.56956 4.41111 37007 ft 420 kts 211°
2026-04-28 15:02 42.51827 4.37272 37009 ft 420 kts 211°
2026-04-28 15:03 42.46697 4.33438 37008 ft 420 kts 211°
2026-04-28 15:03 42.41595 4.29633 37006 ft 420 kts 211°
2026-04-28 15:04 42.36466 4.25814 37006 ft 421 kts 211°
2026-04-28 15:04 42.31319 4.21990 37007 ft 421 kts 211°
2026-04-28 15:05 42.26208 4.18199 37008 ft 421 kts 211°
2026-04-28 15:05 42.21052 4.14381 37003 ft 422 kts 210°
2026-04-28 15:06 42.15923 4.10599 37001 ft 422 kts 210°
2026-04-28 15:06 42.10757 4.06803 37000 ft 422 kts 210°
2026-04-28 15:07 42.05582 4.03007 37001 ft 423 kts 210°
2026-04-28 15:07 42.00439 3.99242 37001 ft 423 kts 210°
2026-04-28 15:08 41.95254 3.95452 37000 ft 422 kts 210°
2026-04-28 15:08 41.90014 3.91818 36998 ft 423 kts 208°
2026-04-28 15:09 41.84790 3.88309 36998 ft 423 kts 208°
2026-04-28 15:09 41.79519 3.84763 36996 ft 423 kts 208°
2026-04-28 15:10 41.74249 3.81224 36994 ft 423 kts 208°
2026-04-28 15:10 41.69015 3.77715 36992 ft 423 kts 208°
2026-04-28 15:11 41.63738 3.74183 36994 ft 423 kts 208°
2026-04-28 15:11 41.58458 3.70657 36997 ft 423 kts 208°
2026-04-28 15:12 41.53217 3.67163 36988 ft 424 kts 207°
2026-04-28 15:12 41.47929 3.63643 36989 ft 424 kts 207°
2026-04-28 15:13 41.42639 3.60128 36989 ft 424 kts 207°
2026-04-28 15:13 41.37382 3.56643 36991 ft 425 kts 207°
2026-04-28 15:14 41.32089 3.53140 36987 ft 425 kts 207°
2026-04-28 15:14 41.26774 3.49628 36992 ft 425 kts 207°
2026-04-28 15:15 41.21493 3.46144 36987 ft 425 kts 207°
2026-04-28 15:15 41.16080 3.43029 36993 ft 426 kts 201°
2026-04-28 15:16 41.10532 3.40197 36984 ft 426 kts 202°
2026-04-28 15:16 41.05004 3.37328 36986 ft 426 kts 202°
2026-04-28 15:17 40.99493 3.34468 36981 ft 427 kts 202°
2026-04-28 15:17 40.93954 3.31596 36985 ft 427 kts 202°
2026-04-28 15:18 40.88428 3.28737 36980 ft 428 kts 202°
2026-04-28 15:18 40.82869 3.25866 36981 ft 428 kts 202°
2026-04-28 15:19 40.77336 3.23014 36981 ft 428 kts 202°
2026-04-28 15:19 40.71776 3.20152 36982 ft 428 kts 202°
2026-04-28 15:20 40.66235 3.17306 36976 ft 429 kts 202°
2026-04-28 15:20 40.60688 3.14371 36964 ft 428 kts 207°
2026-04-28 15:21 40.55442 3.10635 36977 ft 429 kts 208°
2026-04-28 15:21 40.50195 3.06873 36973 ft 429 kts 208°
2026-04-28 15:22 40.44981 3.03134 36967 ft 429 kts 208°
2026-04-28 15:22 40.39724 2.99371 36969 ft 429 kts 208°
2026-04-28 15:23 40.34513 2.95647 36966 ft 429 kts 208°
2026-04-28 15:23 40.29250 2.91894 36964 ft 429 kts 208°
2026-04-28 15:24 40.23997 2.88153 36963 ft 429 kts 208°
2026-04-28 15:24 40.18765 2.84434 36959 ft 429 kts 208°
2026-04-28 15:25 40.13502 2.80700 36959 ft 429 kts 208°
2026-04-28 15:25 40.08259 2.76987 36960 ft 429 kts 208°
2026-04-28 15:26 40.03044 2.73299 36956 ft 429 kts 208°
2026-04-28 15:26 39.97772 2.69579 36954 ft 430 kts 208°
2026-04-28 15:27 39.92525 2.65882 36958 ft 430 kts 208°
2026-04-28 15:27 39.87246 2.62170 36966 ft 431 kts 208°
2026-04-28 15:28 39.82861 2.59091 36971 ft 431 kts 208°
2026-04-28 15:28 39.77568 2.55380 36976 ft 431 kts 208°
2026-04-28 15:29 39.72298 2.51693 36979 ft 431 kts 208°
2026-04-28 15:29 39.67004 2.47992 36981 ft 432 kts 208°
2026-04-28 15:30 39.61729 2.44312 36979 ft 432 kts 208°
2026-04-28 15:30 39.56494 2.40466 36960 ft 432 kts 218°
2026-04-28 15:30 39.54404 2.37679 36964 ft 431 kts 234°
2026-04-28 15:31 39.52779 2.34395 36963 ft 434 kts 237°
2026-04-28 15:31 39.49658 2.27736 36947 ft 435 kts 238°
2026-04-28 15:32 39.46579 2.20967 36943 ft 435 kts 238°
2026-04-28 15:32 39.43536 2.14233 36940 ft 435 kts 238°
2026-04-28 15:33 39.40481 2.07479 36936 ft 434 kts 238°
2026-04-28 15:33 39.37416 2.00717 36937 ft 435 kts 238°
2026-04-28 15:34 39.34365 1.94002 36938 ft 435 kts 238°
2026-04-28 15:34 39.31311 1.87291 36938 ft 435 kts 238°
2026-04-28 15:35 39.28237 1.80555 36946 ft 435 kts 238°
2026-04-28 15:35 39.23640 1.70503 36950 ft 434 kts 238°
2026-04-28 15:36 39.20559 1.63784 36961 ft 434 kts 238°
2026-04-28 15:36 39.17474 1.57073 36962 ft 434 kts 238°
2026-04-28 15:37 39.14406 1.50411 36940 ft 434 kts 238°
2026-04-28 15:37 39.11413 1.43648 36921 ft 434 kts 246°
2026-04-28 15:38 39.09219 1.36426 36915 ft 435 kts 247°
2026-04-28 15:38 39.07038 1.29288 36645 ft 418 kts 247°
2026-04-28 15:39 39.05976 1.25810 36104 ft 416 kts 247°
2026-04-28 15:39 39.04929 1.22386 35576 ft 414 kts 247°
2026-04-28 15:39 39.03876 1.18943 35054 ft 413 kts 248°
2026-04-28 15:39 39.02825 1.15511 34554 ft 411 kts 248°
2026-04-28 15:40 39.01773 1.12082 34075 ft 410 kts 248°
2026-04-28 15:40 39.00725 1.08674 33571 ft 408 kts 248°
2026-04-28 15:40 38.99696 1.05329 33061 ft 406 kts 248°
2026-04-28 15:40 38.98655 1.01950 32589 ft 403 kts 248°
2026-04-28 15:41 38.97624 0.98605 32142 ft 400 kts 248°
2026-04-28 15:41 38.96601 0.95287 31685 ft 398 kts 248°
2026-04-28 15:41 38.95593 0.92023 31191 ft 397 kts 248°
2026-04-28 15:41 38.94569 0.88712 30722 ft 395 kts 247°
2026-04-28 15:42 38.93556 0.85437 30293 ft 393 kts 247°
2026-04-28 15:42 38.92548 0.82186 29833 ft 391 kts 247°
2026-04-28 15:42 38.91557 0.78988 29342 ft 389 kts 247°
2026-04-28 15:42 38.90558 0.75772 28895 ft 385 kts 247°
2026-04-28 15:43 38.89565 0.72579 28472 ft 382 kts 247°
2026-04-28 15:43 38.88582 0.69420 28050 ft 379 kts 247°
2026-04-28 15:43 38.87604 0.66285 27599 ft 377 kts 247°
2026-04-28 15:43 38.86645 0.63211 27199 ft 374 kts 247°
2026-04-28 15:44 38.85679 0.60121 26818 ft 370 kts 247°
2026-04-28 15:44 38.84722 0.57062 26423 ft 368 kts 247°
2026-04-28 15:44 38.83770 0.54022 26032 ft 365 kts 247°
2026-04-28 15:44 38.82836 0.51042 25647 ft 363 kts 246°
2026-04-28 15:45 38.81931 0.48022 25238 ft 362 kts 252°
2026-04-28 15:45 38.81334 0.44878 24825 ft 361 kts 254°
2026-04-28 15:45 38.80708 0.41760 24474 ft 358 kts 253°
2026-04-28 15:45 38.80073 0.38675 24113 ft 356 kts 253°
2026-04-28 15:46 38.79432 0.35615 23739 ft 355 kts 253°
2026-04-28 15:46 38.78795 0.32594 23333 ft 353 kts 252°
2026-04-28 15:46 38.78152 0.29561 22918 ft 351 kts 252°
2026-04-28 15:46 38.77513 0.26550 22529 ft 348 kts 252°
2026-04-28 15:47 38.76876 0.23558 22159 ft 345 kts 252°
2026-04-28 15:47 38.76253 0.20640 21805 ft 342 kts 252°
2026-04-28 15:47 38.75627 0.17708 21440 ft 339 kts 252°
2026-04-28 15:47 38.75005 0.14796 21074 ft 337 kts 253°
2026-04-28 15:48 38.74389 0.11915 20720 ft 334 kts 252°
2026-04-28 15:48 38.73772 0.09040 20363 ft 332 kts 253°
2026-04-28 15:48 38.73169 0.06230 20014 ft 330 kts 252°
2026-04-28 15:48 38.72560 0.03396 19658 ft 328 kts 252°
2026-04-28 15:49 38.71956 0.00587 19301 ft 325 kts 253°
2026-04-28 15:49 38.71356 -0.02200 18948 ft 323 kts 253°
2026-04-28 15:49 38.70758 -0.04968 18582 ft 321 kts 253°
2026-04-28 15:49 38.70174 -0.07677 18257 ft 319 kts 253°
2026-04-28 15:50 38.69583 -0.10410 17870 ft 317 kts 253°
2026-04-28 15:50 38.68992 -0.13135 17496 ft 315 kts 253°
2026-04-28 15:50 38.68412 -0.15820 17179 ft 309 kts 252°
2026-04-28 15:50 38.67843 -0.18436 16831 ft 308 kts 252°
2026-04-28 15:51 38.67271 -0.21068 16500 ft 305 kts 252°
2026-04-28 15:51 38.66704 -0.23676 16167 ft 302 kts 252°
2026-04-28 15:51 38.66141 -0.26258 15845 ft 299 kts 252°
2026-04-28 15:51 38.65584 -0.28815 15521 ft 296 kts 253°
2026-04-28 15:52 38.65036 -0.31323 15200 ft 295 kts 252°
2026-04-28 15:52 38.64486 -0.33843 14888 ft 293 kts 252°
2026-04-28 15:52 38.63938 -0.36346 14573 ft 290 kts 252°
2026-04-28 15:52 38.63392 -0.38838 14262 ft 289 kts 252°
2026-04-28 15:53 38.62858 -0.41278 13950 ft 288 kts 252°
2026-04-28 15:53 38.62317 -0.43758 13580 ft 288 kts 252°
2026-04-28 15:53 38.61776 -0.46234 13244 ft 287 kts 252°
2026-04-28 15:53 38.61239 -0.48693 12924 ft 284 kts 252°
2026-04-28 15:54 38.60715 -0.51086 12628 ft 282 kts 252°
2026-04-28 15:54 38.60189 -0.53493 12320 ft 279 kts 251°
2026-04-28 15:54 38.59666 -0.55878 12040 ft 276 kts 251°
2026-04-28 15:54 38.59148 -0.58229 11732 ft 273 kts 251°
2026-04-28 15:55 38.58642 -0.60535 11448 ft 271 kts 251°
2026-04-28 15:55 38.58131 -0.62857 11154 ft 270 kts 251°
2026-04-28 15:55 38.57647 -0.65054 10871 ft 268 kts 251°
2026-04-28 15:55 38.57143 -0.67342 10584 ft 267 kts 251°
2026-04-28 15:56 38.56980 -0.68082 10488 ft 266 kts 251°
2026-04-28 15:56 38.56697 -0.69363 10322 ft 265 kts 251°
2026-04-28 15:56 38.56199 -0.71619 10051 ft 263 kts 251°
2026-04-28 15:56 38.55705 -0.73851 9867 ft 267 kts 251°
2026-04-28 15:57 38.55195 -0.76159 9567 ft 271 kts 252°
2026-04-28 15:57 38.54689 -0.78445 9422 ft 264 kts 252°
2026-04-28 15:57 38.54196 -0.80671 9291 ft 255 kts 251°
2026-04-28 15:57 38.53607 -0.82762 9083 ft 248 kts 237°
2026-04-28 15:58 38.52486 -0.84397 8780 ft 243 kts 216°
2026-04-28 15:58 38.51117 -0.85599 8514 ft 240 kts 213°
2026-04-28 15:58 38.49753 -0.86828 8247 ft 238 kts 215°
2026-04-28 15:58 38.48428 -0.88113 7974 ft 238 kts 216°
2026-04-28 15:59 38.47131 -0.89437 7677 ft 238 kts 218°
2026-04-28 15:59 38.46281 -0.90329 7476 ft 239 kts 218°
2026-04-28 15:59 38.44589 -0.92142 7127 ft 237 kts 218°
2026-04-28 15:59 38.43338 -0.93498 6920 ft 234 kts 219°
2026-04-28 16:00 38.42053 -0.94797 6668 ft 239 kts 211°
2026-04-28 16:00 38.40578 -0.95829 6397 ft 244 kts 203°
2026-04-28 16:00 38.38997 -0.96688 6121 ft 249 kts 199°
2026-04-28 16:00 38.37339 -0.97175 5810 ft 246 kts 187°
2026-04-28 16:01 38.35655 -0.96951 5620 ft 240 kts 155°
2026-04-28 16:01 38.34377 -0.95732 5622 ft 228 kts 137°
2026-04-28 16:01 38.33481 -0.94097 5345 ft 228 kts 108°
2026-04-28 16:01 38.33170 -0.92133 5045 ft 228 kts 99°
2026-04-28 16:02 38.32918 -0.90146 4823 ft 225 kts 99°
2026-04-28 16:02 38.32676 -0.88182 4556 ft 223 kts 99°
2026-04-28 16:02 38.32429 -0.86278 4413 ft 212 kts 100°
2026-04-28 16:02 38.32185 -0.84473 4233 ft 203 kts 100°
2026-04-28 16:03 38.31945 -0.82716 3977 ft 198 kts 101°
2026-04-28 16:03 38.31712 -0.81029 3739 ft 195 kts 101°
2026-04-28 16:03 38.31479 -0.79335 3507 ft 195 kts 101°
2026-04-28 16:03 38.31242 -0.77631 3250 ft 194 kts 101°
2026-04-28 16:04 38.31007 -0.75938 3001 ft 194 kts 101°
2026-04-28 16:04 38.30774 -0.74254 2751 ft 192 kts 101°
2026-04-28 16:04 38.30544 -0.72589 2492 ft 189 kts 101°
2026-04-28 16:04 38.30317 -0.70952 2245 ft 186 kts 101°
2026-04-28 16:05 38.30097 -0.69366 2002 ft 183 kts 101°
2026-04-28 16:05 38.29877 -0.67779 1765 ft 180 kts 100°
2026-04-28 16:05 38.29658 -0.66207 1530 ft 181 kts 101°
2026-04-28 16:05 38.29443 -0.64651 1319 ft 174 kts 101°
2026-04-28 16:06 38.29240 -0.63190 1094 ft 159 kts 101°
2026-04-28 16:06 38.29051 -0.61830 860 ft 152 kts 101°
2026-04-28 16:06 38.28867 -0.60506 637 ft 152 kts 101°
2026-04-28 16:06 38.28685 -0.59152 451 ft 156 kts 100°
2026-04-28 16:07 38.28498 -0.57817 248 ft 154 kts 101°
2026-04-28 16:07 38.28320 -0.56556 126 ft 127 kts 100°
2026-04-28 16:07 38.28126 -0.55152 81 ft 37 kts 95°
2026-04-28 16:08 38.28148 -0.54875 69 ft 20 kts 71°
2026-04-28 16:08 38.28189 -0.54735 62 ft 14 kts 64°
2026-04-28 16:08 38.28243 -0.54730 66 ft 9 kts 280°
2026-04-28 16:09 38.28271 -0.54943 66 ft 19 kts 279°
2026-04-28 16:09 38.28298 -0.55129 86 ft 18 kts 280°
2026-04-28 16:09 38.28343 -0.55211 88 ft 10 kts
2026-04-28 16:10 38.28431 -0.55160 93 ft 5 kts 302°
2026-04-28 16:10 38.28456 -0.55185 94 ft 6 kts 354°
2026-04-28 16:10 38.28512 -0.55176 96 ft 1 kts 10°
2026-04-28 16:11 38.28516 -0.55175 97 ft 0 kts 10°